Location: Casteau
(50.5142°N, 4.0161°E)
Time: 18:25:13
(UTC+00:00)

S-56A Canister/Altair - Pass Details

Date: 01 August 2021
Orbit: 632 x 2500 km, 38.9° (Epoch: 20 September)

Event Time Altitude Azimuth Distance (km) Brightness Sun altitude
Rises 17:08:34 0° 259° (W) 5,901 13.4 20.2°
Reaches altitude 10° 17:12:23 10° 255° (WSW) 5,024 13.3 19.6°
Maximum altitude 17:26:29 52° 186° (S) 2,916 10.7 17.4°
Drops below altitude 10° 17:39:38 10° 116° (ESE) 4,705 11.0 15.3°
Sets 17:43:04 0° 111° (ESE) 5,514 11.3 14.8°
